STARLINK-1579, 46083

Orbit data source: Space-Track

STARLINK-1579, 46083 is a payload satellite owned by SpaceX/Seattle (US) in LEO that was launched on Fri, 07 Aug 2020 UTC via an FALCON 9 launch vehicle from the Air Force Eastern Test Range (AFETR). Payloads include a variety of satellites, spacecraft, and rockets equipped with specific instruments for various scientific and technological missions. These include communications satellites like Starlink; space stations such as the ISS; scientific satellites like the Hubble; Earth observation satellites from companies like Planet Labs, Umbra, and HawkEye 360; GPS; miniature CubeSats for education and research; and military/defense satellites.

Loading next visibility...
STARLINK-1579 details
Identifier
46083, 2020-055BJ
Orbit
LEO
Last TLE update9 hours ago
Origin
Flag of USSpaceX/Seattle (US)
ManufacturerSpaceX/Seattle
MissionOperational Commercial Communications
Bus & MotorSTARLINK, Unknown motor
Mass260 kg wet, ~248 kg dry
Launch date (UTC)
2020-08-07 (4 years ago)
Launch vehicle
FALCON 9
Launch site
Air Force Eastern Test Range (AFETR)
Object type
Payload
Rocket body
Debris
Shape & HBRBox + 1 Pan, 8.86 m
Radar Cross Section13.562 m², Large (>1 m²)

Expand to show TLE details & history

TLE from 9 hours ago
0 STARLINK-1579
1 46083U 20055BJ  24361.42831554  .00004300  00000-0  30730-3 0  9994
2 46083  53.0556 264.0394 0001956  73.7352 286.3852 15.06413648243240
Epoch: 2024-12-26T10:16Z
Definitive object data (Epoch: 2024-12-26T10:16:46.462Z)
Latitude-0.00004°
Longitude14.43793°
Altitude547.667 km
Speed7.59 km/s
True Right ascension17h 36m 09s
True Declination0° 00' 00"
Sunlit
Object was in daylight at TLE epoch
Visualization TLE readout
Latitude-10.87882°
Longitude4.39741°
Altitude550.047 km
Speed7.587 km/s
Apparent Right ascension13h 56m 53s
Apparent Declination-54° 36' 04"
Sunlit
Object is in daylight
Visualization observer readout
Local Sidereal Time19:09:07
Azimuth218.91° SW
Elevation-25.538°
Doppler factor1
Orbital elements
Apogee altitude548.795 km
Perigee altitude546.086 km
Semi-major axis6,925.577 km
Eccentricity0.0001956
Inclination53.0556°
RAAN264.0394°
Arg. of periapsis73.7352°
True anomaly286.36369°
Mean anomaly286.3852°
Eccentric anomaly286.37445°
Mean motion3.76582 °/min
BSTAR0.0003073
Orbital period95.6 mins
Loading maneuver chart data...
Loading historical data...
Loading historical data...
Loading historical data...
Loading historical data...
Loading historical data...
Loading historical data...
Loading historical data...

STARLINK-1579 Visibility forecast

Observer location: undefined°, undefined

Span
Click to sort rows by Start time (UTC) header in descending order
Start Az.
Max El. time (UTC)
Max El. Az.
Max El.
End time (UTC)
End Az.
7 mins2024-12-26 19:59:23.995Z200.792° SSW2024-12-26 20:02:23.995Z145.61° SSE32.894°2024-12-26 20:06:23.995Z63.783° ENE
5 mins2024-12-26 21:40:23.995Z284.281° WNW2024-12-26 21:42:23.995Z334.764° NNW28.121°2024-12-26 21:45:23.995Z31.474° NE
6 mins2024-12-27 02:41:23.995Z327.37° NNW2024-12-27 02:44:23.995Z47.682° ENE34.438°2024-12-27 02:47:23.995Z103.767° ESE
5 mins2024-12-27 04:21:23.995Z272.933° WNW2024-12-27 04:23:23.995Z230.87° WSW24.153°2024-12-27 04:26:23.995Z176.197° S
|